Weather History for Port Hope, MI

Change the Weather History Date:

Friday, March 1, 2013

  Actual Average Record
Temperature  
Mean Temperature 26 °F -  
Max Temperature 28 °F 31 °F 46 °F (1997)
Min Temperature 24 °F 20 °F 8 °F (2009)
Degree Days  
Heating Degree Days 39    
Moisture  
Dew Point 20 °F    
Average Humidity 76    
Maximum Humidity 81    
Minimum Humidity 72    
Precipitation  
Precipitation 0.00 in - - ()
Sea Level Pressure  
Sea Level Pressure 30.08 in    
Wind  
Wind Speed 15 mph (North)    
Max Wind Speed 21 mph    
Max Gust Speed 28 mph    
Averages and records for this station are not official NWS values.
T = Trace of Precipitation, MM = Missing Value Source: NWS Daily Summary

Daily Weather History Graph

Daily Weather History Graph

Search for Another Location

Airport:

Trip Planner

Search our weather history database for the weather conditions in past years. The results will help you decide how hot, cold, wet, or windy it might be!

Date:

Astronomy

Mar. 01, 2013 Rise Set
Actual Time 7:07 AM EST 6:19 PM EST
Civil Twilight 6:38 AM EST 6:48 PM EST
Nautical Twilight 6:05 AM EST 7:22 PM EST
Astronomical Twilight 5:31 AM EST 7:55 PM EST
Moon 11:03 PM EST (3/1) 8:43 AM EST (3/1)
Length of Visible Light 12h 10m
Length of Day
11h 12m
Waning Gibbous, 83% of the Moon is Illuminated
Mar 1
Waning Gibbous
Mar 4
Last Quarter
Mar 11
New
Mar 19
First Quarter
Mar 27
Full

Hourly Weather History & Observations

Time (EST) Temp. Windchill Dew Point Humidity Pressure Visibility Wind Dir Wind Speed Gust Speed Precip Events Conditions
12:51 AM 28.0 °F 15.3 °F 21.0 °F 75% 29.99 in - NNE 18.4 mph - N/A   Unknown
1:51 AM 28.0 °F 15.7 °F 21.0 °F 75% 30.00 in - NNE 17.3 mph 24.2 mph N/A   Unknown
2:51 AM 27.0 °F 14.7 °F 19.9 °F 75% 30.02 in - NNE 16.1 mph 27.6 mph N/A   Unknown
3:51 AM 26.1 °F 13.6 °F 19.9 °F 78% 30.02 in - North 16.1 mph 20.7 mph N/A   Unknown
4:51 AM 25.0 °F 12.2 °F 19.0 °F 78% 30.04 in - North 16.1 mph 20.7 mph N/A   Unknown
5:51 AM 25.0 °F 13.1 °F 19.0 °F 78% 30.05 in - North 13.8 mph 23.0 mph N/A   Unknown
6:51 AM 25.0 °F 12.6 °F 19.0 °F 78% 30.05 in - North 15.0 mph 24.2 mph N/A   Unknown
7:51 AM 24.1 °F 12.0 °F 19.0 °F 81% 30.07 in - NNE 13.8 mph 26.5 mph N/A   Unknown
8:51 AM 24.1 °F 11.0 °F 19.0 °F 81% 30.09 in - North 16.1 mph 24.2 mph N/A   Unknown
9:51 AM 25.0 °F 12.6 °F 19.0 °F 78% 30.09 in - North 15.0 mph 21.9 mph N/A   Unknown
10:51 AM 25.0 °F 11.3 °F 19.0 °F 78% 30.11 in - North 18.4 mph 23.0 mph N/A   Unknown
11:51 AM 26.1 °F 15.6 °F 19.9 °F 78% 30.11 in - North 11.5 mph 19.6 mph N/A   Unknown
12:51 PM 26.1 °F 17.6 °F 19.9 °F 78% 30.11 in - North 8.1 mph 19.6 mph N/A   Unknown
1:51 PM 25.0 °F 17.1 °F 19.0 °F 78% 30.10 in - NNW 6.9 mph 19.6 mph N/A   Unknown
2:51 PM 26.1 °F 17.6 °F 19.9 °F 78% 30.09 in - North 8.1 mph - N/A   Unknown
3:51 PM 26.1 °F 18.4 °F 19.9 °F 78% 30.09 in - North 6.9 mph - N/A   Unknown
4:51 PM 27.0 °F 16.7 °F 19.9 °F 75% 30.09 in - North 11.5 mph 24.2 mph N/A   Unknown
5:51 PM 27.0 °F 18.0 °F 19.9 °F 75% 30.10 in - North 9.2 mph 20.7 mph N/A   Unknown
6:51 PM 28.0 °F 20.0 °F 21.0 °F 75% 30.12 in - North 8.1 mph - N/A   Unknown
7:51 PM 28.0 °F 18.1 °F 19.9 °F 72% 30.11 in - North 11.5 mph 24.2 mph N/A   Unknown
8:51 PM 28.9 °F 17.3 °F 21.0 °F 72% 30.11 in - North 16.1 mph 24.2 mph N/A   Unknown
9:51 PM 28.9 °F 17.3 °F 21.0 °F 72% 30.12 in - NNE 16.1 mph 25.3 mph N/A   Unknown
10:51 PM 28.0 °F 14.6 °F 19.9 °F 72% 30.11 in - NNE 20.7 mph 25.3 mph N/A   Unknown
11:51 PM 28.0 °F 14.6 °F 21.0 °F 75% 30.10 in - NNE 20.7 mph 24.2 mph N/A   Unknown